User: anonymous   Login
Location: Ar Ranvel
(48.3000°N, 4.8833°W)
Time: 09:56:01
(UTC+00:00)
Language:

FALCON 9 DEB - Orbit

View from above orbital plane
View from above orbital plane
View from above satellite
View from above satellite

Ground track
Ground track

The orbit data is extracted from the following two-line orbital elements,

1 46085U 20055BL  21264.76321763  .00022071  00000-0  19964-3 0  9999
2 46085  53.0084  84.1275 0008852 198.9263 161.1424 15.68004453 68754
Epoch (UTC): 21 September 2021 18:19:02
Eccentricity: 0.0008852
inclination: 53.0084°
perigee height: 358 km
apogee height: 370 km
right ascension of ascending node: 84.1275°
argument of perigee: 198.9263°
revolutions per day: 15.68004453
mean anomaly at epoch: 161.1424°
orbit number at epoch: 6875

The dashed part of the orbit path shows where the satellite is in the earth's shadow,  

DLR